| time (UTC) | temp F | wind direction | speed knots | gust knots | rain 1hr in | rain 24hr in | rain mn in | humidity % | barometer mb |
| 20260906100106 | 63 | 141 | 4.3 | 7.0 | 0.00 | 0.00 | 0.00 | 79 | 1022.2 |
| 20260906095106 | 63 | 133 | 3.5 | 7.8 | 0.00 | 0.00 | 0.00 | 79 | 1022.4 |
| 20260906094606 | 63 | 131 | 4.3 | 8.7 | 0.00 | 0.00 | 0.00 | 81 | 1022.4 |
| 20260906094106 | 63 | 126 | 4.3 | 8.7 | 0.00 | 0.00 | 0.00 | 80 | 1022.4 |
| 20260906093606 | 63 | 132 | 4.3 | 7.8 | 0.00 | 0.00 | 0.00 | 80 | 1022.5 |
| 20260906093106 | 62 | 136 | 2.6 | 6.1 | 0.00 | 0.00 | 0.00 | 82 | 1022.5 |
| 20260906092606 | 62 | 132 | 4.3 | 10.4 | 0.00 | 0.00 | 0.00 | 82 | 1022.6 |
| 20260906092106 | 62 | 150 | 1.7 | 6.1 | 0.00 | 0.00 | 0.00 | 83 | 1022.5 |
| 20260906091606 | 63 | 118 | 4.3 | 8.7 | 0.00 | 0.00 | 0.00 | 79 | 1022.5 |
| 20260906091106 | 64 | 122 | 4.3 | 7.8 | 0.00 | 0.00 | 0.00 | 78 | 1022.6 |
| 20260906090606 | 64 | 137 | 2.6 | 6.1 | 0.00 | 0.00 | 0.00 | 79 | 1022.6 |
| 20260906085606 | 63 | 159 | 2.6 | 6.1 | 0.00 | 0.00 | 0.00 | 80 | 1022.7 |
| 20260906085106 | 62 | 139 | 2.6 | 7.8 | 0.00 | 0.00 | 0.00 | 81 | 1022.6 |
| 20260906084606 | 61 | 133 | 3.5 | 7.0 | 0.00 | 0.00 | 0.00 | 82 | 1022.6 |
| 20260906084106 | 62 | 157 | 5.2 | 7.8 | 0.00 | 0.00 | 0.00 | 78 | 1022.5 |
| 20260906083606 | 62 | 140 | 5.2 | 7.8 | 0.00 | 0.00 | 0.00 | 78 | 1022.5 |
| 20260906083105 | 63 | 137 | 3.5 | 7.8 | 0.00 | 0.00 | 0.00 | 79 | 1022.5 |
| 20260906082606 | 62 | 146 | 2.6 | 6.1 | 0.00 | 0.00 | 0.00 | 78 | 1022.5 |
| 20260906082106 | 62 | 131 | 4.3 | 7.8 | 0.00 | 0.00 | 0.00 | 77 | 1022.5 |
| 20260906081606 | 63 | 136 | 2.6 | 7.0 | 0.00 | 0.00 | 0.00 | 76 | 1022.5 |
| 20260906081105 | 64 | 128 | 2.6 | 7.0 | 0.00 | 0.00 | 0.00 | 77 | 1022.5 |
| 20260906080606 | 63 | 144 | 1.7 | 5.2 | 0.00 | 0.00 | 0.00 | 77 | 1022.5 |
| 20260906080106 | 63 | 149 | 1.7 | 4.3 | 0.00 | 0.00 | 0.00 | 79 | 1022.5 |
| 20260906075106 | 63 | 130 | 3.5 | 7.8 | 0.00 | 0.00 | 0.00 | 77 | 1022.4 |
| 20260906074606 | 63 | 124 | 2.6 | 6.1 | 0.00 | 0.00 | 0.00 | 78 | 1022.4 |
| 20260906074106 | 63 | 122 | 3.5 | 7.0 | 0.00 | 0.00 | 0.00 | 77 | 1022.3 |
| 20260906073106 | 62 | 111 | 1.7 | 4.3 | 0.00 | 0.00 | 0.00 | 81 | 1022.3 |
| 20260906072606 | 61 | 104 | 0.9 | 2.6 | 0.00 | 0.00 | 0.00 | 82 | 1022.3 |
| 20260906072106 | 61 | 98 | 2.6 | 6.1 | 0.00 | 0.00 | 0.00 | 82 | 1022.3 |
| 20260906071606 | 60 | 73 | 2.6 | 4.3 | 0.00 | 0.00 | 0.00 | 84 | 1022.3 |
| 20260906070605 | 60 | 88 | 1.7 | 7.0 | 0.00 | 0.00 | 0.00 | 83 | 1022.2 |
| 20260906070106 | 60 | 129 | 2.6 | 4.3 | 0.00 | 0.00 | 0.00 | 82 | 1022.2 |
| 20260906065105 | 60 | 132 | 1.7 | 4.3 | 0.00 | 0.00 | 0.00 | 84 | 1022.1 |
| 20260906064606 | 59 | 133 | 1.7 | 4.3 | 0.00 | 0.00 | 0.00 | 85 | 1022.1 |
| 20260906064106 | 58 | 126 | 1.7 | 4.3 | 0.00 | 0.00 | 0.00 | 85 | 1022.0 |
| 20260906063606 | 58 | 88 | 0.9 | 5.2 | 0.00 | 0.00 | 0.00 | 85 | 1022.0 |
| 20260906063106 | 58 | 88 | 1.7 | 4.3 | 0.00 | 0.00 | 0.00 | 85 | 1022.0 |
| 20260906062606 | 58 | 86 | 4.3 | 7.0 | 0.00 | 0.00 | 0.00 | 85 | 1021.9 |
| 20260906062106 | 58 | 74 | 1.7 | 2.6 | 0.00 | 0.00 | 0.00 | 85 | 1021.9 |
| 20260906061605 | 58 | 73 | 1.7 | 2.6 | 0.00 | 0.00 | 0.00 | 84 | 1021.9 |
| 20260906061106 | 59 | 70 | 1.7 | 2.6 | 0.00 | 0.00 | 0.00 | 84 | 1021.8 |
| 20260906060605 | 58 | 70 | 1.7 | 2.6 | 0.00 | 0.00 | 0.00 | 85 | 1021.8 |
| 20260906055606 | 58 | 68 | 1.7 | 6.1 | 0.00 | 0.00 | 0.00 | 85 | 1021.6 |
| 20260906055106 | 58 | 69 | 2.6 | 6.1 | 0.00 | 0.00 | 0.00 | 85 | 1021.6 |
| 20260906054605 | 57 | 65 | 1.7 | 4.3 | 0.00 | 0.00 | 0.00 | 85 | 1021.6 |
| 20260906054106 | 57 | 62 | 2.6 | 6.1 | 0.00 | 0.00 | 0.00 | 85 | 1021.6 |
| 20260906053605 | 57 | 55 | 2.6 | 6.1 | 0.00 | 0.00 | 0.00 | 86 | 1021.6 |
| 20260906053106 | 56 | 45 | 2.6 | 5.2 | 0.00 | 0.00 | 0.00 | 85 | 1021.5 |
| 20260906052606 | 56 | 65 | 5.2 | 7.0 | 0.00 | 0.00 | 0.00 | 86 | 1021.5 |
| 20260906052106 | 56 | 85 | 3.5 | 6.1 | 0.00 | 0.00 | 0.00 | 85 | 1021.4 |
| 20260906051605 | 55 | 84 | 2.6 | 5.2 | 0.00 | 0.00 | 0.00 | 85 | 1021.4 |
| 20260906050605 | 55 | 82 | 2.6 | 6.1 | 0.00 | 0.00 | 0.00 | 83 | 1021.3 |
| 20260906050106 | 55 | 82 | 4.3 | 6.1 | 0.00 | 0.00 | 0.00 | 82 | 1021.3 |
| 20260906045605 | 55 | 79 | 3.5 | 6.1 | 0.00 | 0.00 | 0.00 | 82 | 1021.2 |
| 20260906044606 | 55 | 65 | 2.6 | 6.1 | 0.00 | 0.00 | 0.00 | 83 | 1021.1 |
| 20260906044105 | 55 | 68 | 3.5 | 7.8 | 0.00 | 0.00 | 0.00 | 83 | 1021.1 |
| 20260906043605 | 55 | 67 | 3.5 | 7.0 | 0.00 | 0.00 | 0.00 | 84 | 1021.1 |
| 20260906043105 | 55 | 62 | 4.3 | 7.8 | 0.00 | 0.00 | 0.00 | 84 | 1021.0 |
| 20260906042605 | 55 | 72 | 4.3 | 7.0 | 0.00 | 0.00 | 0.00 | 84 | 1021.0 |
| 20260906042106 | 55 | 81 | 5.2 | 7.8 | 0.00 | 0.00 | 0.00 | 84 | 1021.1 |
| 20260906041606 | 55 | 83 | 2.6 | 5.2 | 0.00 | 0.00 | 0.00 | 84 | 1021.0 |
| 20260906040605 | 55 | 92 | 2.6 | 6.1 | 0.00 | 0.00 | 0.00 | 84 | 1021.1 |
| 20260906040105 | 55 | 107 | 3.5 | 6.1 | 0.00 | 0.00 | 0.00 | 84 | 1021.0 |
| 20260906035606 | 55 | 107 | 3.5 | 6.1 | 0.00 | 0.00 | 0.00 | 84 | 1020.9 |
| 20260906035106 | 55 | 113 | 3.5 | 6.1 | 0.00 | 0.00 | 0.00 | 84 | 1020.9 |
| 20260906034606 | 55 | 112 | 3.5 | 6.1 | 0.00 | 0.00 | 0.00 | 84 | 1020.8 |
| 20260906034105 | 55 | 112 | 2.6 | 6.1 | 0.00 | 0.00 | 0.00 | 84 | 1020.7 |
| 20260906033605 | 55 | 114 | 2.6 | 4.3 | 0.00 | 0.00 | 0.00 | 84 | 1020.6 |
| 20260906033105 | 55 | 114 | 3.5 | 4.3 | 0.00 | 0.00 | 0.00 | 84 | 1020.5 |
| 20260906032606 | 55 | 112 | 2.6 | 2.6 | 0.00 | 0.00 | 0.00 | 84 | 1020.4 |
| 20260906032106 | 56 | 112 | 2.6 | 4.3 | 0.00 | 0.00 | 0.00 | 85 | 1020.4 |
| 20260906031605 | 56 | 106 | 1.7 | 2.6 | 0.00 | 0.00 | 0.00 | 85 | 1020.3 |
| 20260906031105 | 56 | 106 | 2.6 | 4.3 | 0.00 | 0.00 | 0.00 | 85 | 1020.2 |
| 20260906030606 | 56 | 106 | 3.5 | 4.3 | 0.00 | 0.00 | 0.00 | 86 | 1020.2 |
| 20260906030106 | 57 | 106 | 2.6 | 4.3 | 0.00 | 0.00 | 0.00 | 86 | 1020.2 |
| 20260906025605 | 57 | 106 | 3.5 | 6.1 | 0.00 | 0.00 | 0.00 | 86 | 1020.2 |
| 20260906025105 | 57 | 106 | 3.5 | 4.3 | 0.00 | 0.00 | 0.00 | 86 | 1020.2 |
| 20260906023605 | 57 | 107 | 1.7 | 2.6 | 0.00 | 0.00 | 0.00 | 85 | 1020.2 |
| 20260906023105 | 57 | 107 | 2.6 | 4.3 | 0.00 | 0.00 | 0.00 | 85 | 1020.2 |
| 20260906022606 | 57 | 112 | 1.7 | 2.6 | 0.00 | 0.00 | 0.00 | 85 | 1020.2 |
| 20260906021605 | 57 | 112 | 1.7 | 2.6 | 0.00 | 0.00 | 0.00 | 85 | 1020.3 |
| 20260906021106 | 57 | 112 | 1.7 | 2.6 | 0.00 | 0.00 | 0.00 | 85 | 1020.2 |
| 20260906020606 | 57 | 112 | 0.9 | 2.6 | 0.00 | 0.00 | 0.00 | 85 | 1020.1 |
| 20260906015606 | 57 | 113 | 2.6 | 4.3 | 0.00 | 0.00 | 0.00 | 85 | 1020.1 |
| 20260906015105 | 57 | 113 | 1.7 | 4.3 | 0.00 | 0.00 | 0.00 | 85 | 1020.2 |
| 20260906014606 | 57 | 113 | 1.7 | 4.3 | 0.00 | 0.00 | 0.00 | 85 | 1020.1 |
| 20260906014105 | 57 | 112 | 3.5 | 6.1 | 0.00 | 0.00 | 0.00 | 85 | 1020.1 |
| 20260906013105 | 57 | 90 | 0.9 | 2.6 | 0.00 | 0.00 | 0.00 | 85 | 1020.1 |
| 20260906012106 | 57 | 90 | 2.6 | 5.2 | 0.00 | 0.00 | 0.00 | 85 | 1020.0 |
| 20260906011605 | 57 | 90 | 2.6 | 5.2 | 0.00 | 0.00 | 0.00 | 86 | 1020.0 |
| 20260906011105 | 57 | 90 | 2.6 | 5.2 | 0.00 | 0.00 | 0.00 | 85 | 1020.0 |
| 20260906010606 | 57 | 90 | 1.7 | 4.3 | 0.00 | 0.00 | 0.00 | 85 | 1020.0 |
| 20260906010105 | 57 | 90 | 2.6 | 4.3 | 0.00 | 0.00 | 0.00 | 85 | 1020.0 |
| 20260906005105 | 58 | 90 | 1.7 | 4.3 | 0.00 | 0.00 | 0.00 | 85 | 1020.1 |
| 20260906004606 | 58 | 91 | 1.7 | 2.6 | 0.00 | 0.00 | 0.00 | 85 | 1020.1 |
| 20260906004105 | 58 | 91 | 0.9 | 2.6 | 0.00 | 0.00 | 0.00 | 85 | 1020.1 |
| 20260906003605 | 58 | 92 | 2.6 | 4.3 | 0.00 | 0.00 | 0.00 | 85 | 1020.1 |
| 20260906003105 | 58 | 92 | 2.6 | 5.2 | 0.00 | 0.00 | 0.00 | 85 | 1020.2 |
| 20260906002105 | 58 | 61 | 0.9 | 4.3 | 0.00 | 0.00 | 0.00 | 83 | 1020.2 |
| 20260906001105 | 58 | 54 | 0.0 | 0.0 | 0.00 | 0.00 | 0.00 | 85 | 1020.3 |
| 20260906000105 | 59 | 54 | 1.7 | 4.3 | 0.00 | 0.00 | 0.00 | 85 | 1020.2 |
| 20260905235605 | 59 | 54 | 1.7 | 2.6 | 0.00 | 0.00 | 0.00 | 85 | 1020.2 |
| 20260905235105 | 59 | 55 | 1.7 | 2.6 | 0.00 | 0.00 | 0.00 | 85 | 1020.2 |
| 20260905234605 | 59 | 55 | 2.6 | 2.6 | 0.00 | 0.00 | 0.00 | 85 | 1020.2 |
| 20260905234105 | 59 | 54 | 1.7 | 2.6 | 0.00 | 0.00 | 0.00 | 85 | 1020.1 |
| 20260905233605 | 59 | 55 | 2.6 | 2.6 | 0.00 | 0.00 | 0.00 | 85 | 1020.1 |
| 20260905233106 | 59 | 55 | 1.7 | 2.6 | 0.00 | 0.00 | 0.00 | 85 | 1020.1 |
| 20260905232605 | 59 | 64 | 2.6 | 5.2 | 0.00 | 0.00 | 0.00 | 85 | 1020.2 |
| 20260905231605 | 59 | 74 | 0.9 | 2.6 | 0.00 | 0.00 | 0.00 | 85 | 1020.2 |
| 20260905231105 | 59 | 74 | 0.9 | 2.6 | 0.00 | 0.00 | 0.00 | 85 | 1020.2 |
| 20260905230605 | 59 | 74 | 1.7 | 5.2 | 0.00 | 0.00 | 0.00 | 85 | 1020.1 |
| 20260905230105 | 59 | 94 | 3.5 | 5.2 | 0.00 | 0.00 | 0.00 | 85 | 1020.1 |
| 20260905225105 | 59 | 92 | 0.0 | 0.0 | 0.00 | 0.00 | 0.00 | 85 | 1020.1 |
| 20260905224605 | 59 | 92 | 0.0 | 0.0 | 0.00 | 0.00 | 0.00 | 84 | 1020.1 |
| 20260905224105 | 59 | 92 | 0.0 | 0.0 | 0.00 | 0.00 | 0.00 | 83 | 1020.0 |
| 20260905223605 | 59 | 92 | 0.0 | 0.0 | 0.00 | 0.00 | 0.00 | 83 | 1020.0 |
| 20260905223105 | 58 | 92 | 0.0 | 0.0 | 0.00 | 0.00 | 0.00 | 83 | 1019.9 |
| 20260905222605 | 58 | 92 | 0.0 | 0.0 | 0.00 | 0.00 | 0.00 | 83 | 1019.9 |
| 20260905222105 | 58 | 92 | 0.0 | 0.9 | 0.00 | 0.00 | 0.00 | 83 | 1019.9 |
| 20260905221606 | 58 | 92 | 0.0 | 2.6 | 0.00 | 0.00 | 0.00 | 83 | 1019.9 |
| 20260905221105 | 58 | 92 | 1.7 | 2.6 | 0.00 | 0.00 | 0.00 | 83 | 1019.9 |
| 20260905220605 | 58 | 92 | 0.9 | 2.6 | 0.00 | 0.00 | 0.00 | 83 | 1019.9 |
| 20260905220105 | 58 | 92 | 1.7 | 4.3 | 0.00 | 0.00 | 0.00 | 84 | 1019.9 |
| 20260905215604 | 58 | 92 | 1.7 | 4.3 | 0.00 | 0.00 | 0.00 | 84 | 1019.9 |
| 20260905215105 | 58 | 91 | 4.3 | 6.1 | 0.00 | 0.00 | 0.00 | 84 | 1019.8 |
| 20260905214605 | 58 | 68 | 2.6 | 4.3 | 0.00 | 0.00 | 0.00 | 84 | 1019.9 |
| 20260905214105 | 58 | 67 | 1.7 | 4.3 | 0.00 | 0.00 | 0.00 | 84 | 1019.8 |
| 20260905213105 | 57 | 56 | 3.5 | 7.0 | 0.00 | 0.00 | 0.00 | 85 | 1019.8 |
| 20260905212605 | 57 | 51 | 2.6 | 5.2 | 0.00 | 0.00 | 0.00 | 85 | 1019.8 |
| 20260905212105 | 57 | 42 | 3.5 | 5.2 | 0.00 | 0.00 | 0.00 | 85 | 1019.7 |
| 20260905211605 | 58 | 0 | 2.6 | 2.6 | 0.00 | 0.00 | 0.00 | 85 | 1019.7 |
| 20260905210605 | 58 | 345 | 1.7 | 2.6 | 0.00 | 0.00 | 0.00 | 85 | 1019.6 |
| 20260905210105 | 59 | 355 | 0.9 | 2.6 | 0.00 | 0.00 | 0.00 | 84 | 1019.6 |
| 20260905205605 | 59 | 343 | 1.7 | 2.6 | 0.00 | 0.00 | 0.00 | 85 | 1019.6 |
| 20260905205105 | 59 | 343 | 0.0 | 2.6 | 0.00 | 0.00 | 0.00 | 85 | 1019.6 |
| 20260905204605 | 60 | 348 | 0.9 | 2.6 | 0.00 | 0.00 | 0.00 | 84 | 1019.6 |
| 20260905204105 | 60 | 343 | 0.0 | 2.6 | 0.00 | 0.00 | 0.00 | 84 | 1019.5 |
| 20260905203605 | 60 | 351 | 0.9 | 1.7 | 0.00 | 0.00 | 0.00 | 84 | 1019.5 |
| 20260905203105 | 60 | 353 | 0.9 | 2.6 | 0.00 | 0.00 | 0.00 | 85 | 1019.5 |
| 20260905202605 | 60 | 344 | 2.6 | 4.3 | 0.00 | 0.00 | 0.00 | 85 | 1019.5 |
| 20260905202105 | 60 | 343 | 2.6 | 4.3 | 0.00 | 0.00 | 0.00 | 85 | 1019.4 |
| 20260905201605 | 61 | 352 | 1.7 | 2.6 | 0.00 | 0.00 | 0.00 | 85 | 1019.4 |
| 20260905201105 | 62 | 350 | 1.7 | 2.6 | 0.00 | 0.00 | 0.00 | 85 | 1019.4 |
| 20260905200605 | 62 | 358 | 2.6 | 6.1 | 0.00 | 0.00 | 0.00 | 82 | 1019.3 |
| 20260905200105 | 62 | 0 | 6.1 | 10.4 | 0.00 | 0.00 | 0.00 | 82 | 1019.2 |
| 20260905195605 | 61 | 0 | 8.7 | 11.3 | 0.00 | 0.00 | 0.00 | 82 | 1019.2 |
| 20260905195105 | 61 | 0 | 9.6 | 13.0 | 0.00 | 0.00 | 0.00 | 82 | 1019.1 |
| 20260905194605 | 62 | 358 | 8.7 | 11.3 | 0.00 | 0.00 | 0.00 | 81 | 1019.1 |
| 20260905194105 | 62 | 354 | 8.7 | 10.4 | 0.00 | 0.00 | 0.00 | 81 | 1019.1 |
| 20260905193605 | 63 | 0 | 8.7 | 11.3 | 0.00 | 0.00 | 0.00 | 79 | 1019.0 |
| 20260905193105 | 63 | 354 | 9.6 | 12.2 | 0.00 | 0.00 | 0.00 | 79 | 1019.0 |
| 20260905192605 | 63 | 0 | 7.8 | 10.4 | 0.00 | 0.00 | 0.00 | 79 | 1018.9 |
| 20260905192105 | 62 | 358 | 5.2 | 8.7 | 0.00 | 0.00 | 0.00 | 79 | 1018.9 |
| 20260905191604 | 62 | 0 | 4.3 | 6.1 | 0.00 | 0.00 | 0.00 | 79 | 1018.8 |
| 20260905191105 | 63 | 0 | 1.7 | 4.3 | 0.00 | 0.00 | 0.00 | 80 | 1018.8 |
| 20260905190605 | 63 | 0 | 2.6 | 5.2 | 0.00 | 0.00 | 0.00 | 79 | 1018.8 |
| 20260905190105 | 63 | 0 | 4.3 | 5.2 | 0.00 | 0.00 | 0.00 | 79 | 1018.7 |
| 20260905185604 | 63 | 356 | 4.3 | 7.0 | 0.00 | 0.00 | 0.00 | 78 | 1018.7 |
| 20260905185105 | 63 | 353 | 6.1 | 8.7 | 0.00 | 0.00 | 0.00 | 79 | 1018.7 |
| 20260905184607 | 63 | 0 | 6.1 | 8.7 | 0.00 | 0.00 | 0.00 | 79 | 1018.6 |
| 20260905184105 | 62 | 356 | 7.8 | 10.4 | 0.00 | 0.00 | 0.00 | 81 | 1018.5 |
| 20260905183604 | 62 | 356 | 5.2 | 8.7 | 0.00 | 0.00 | 0.00 | 81 | 1018.4 |
| 20260905183104 | 62 | 0 | 2.6 | 7.0 | 0.00 | 0.00 | 0.00 | 83 | 1018.3 |
| 20260905182605 | 62 | 342 | 2.6 | 5.2 | 0.00 | 0.00 | 0.00 | 83 | 1018.4 |
| 20260905181604 | 62 | 358 | 2.6 | 5.2 | 0.00 | 0.00 | 0.00 | 83 | 1018.3 |
| 20260905181106 | 62 | 0 | 2.6 | 6.1 | 0.00 | 0.00 | 0.00 | 84 | 1018.3 |
| 20260905180605 | 62 | 356 | 3.5 | 5.2 | 0.00 | 0.00 | 0.00 | 85 | 1018.3 |
| 20260905180105 | 62 | 336 | 3.5 | 5.2 | 0.00 | 0.00 | 0.00 | 85 | 1018.4 |
| 20260905175105 | 62 | 344 | 2.6 | 6.1 | 0.00 | 0.00 | 0.00 | 85 | 1018.1 |
| 20260905174605 | 62 | 358 | 2.6 | 5.2 | 0.00 | 0.00 | 0.00 | 85 | 1018.0 |
| 20260905174105 | 62 | 343 | 4.3 | 6.1 | 0.00 | 0.00 | 0.00 | 85 | 1018.0 |
| 20260905173605 | 63 | 358 | 3.5 | 6.1 | 0.00 | 0.00 | 0.00 | 84 | 1017.9 |
| 20260905173105 | 63 | 341 | 2.6 | 7.0 | 0.00 | 0.00 | 0.00 | 84 | 1017.9 |
| 20260905172604 | 63 | 341 | 1.7 | 5.2 | 0.00 | 0.00 | 0.00 | 83 | 1017.9 |
| 20260905172104 | 63 | 269 | 0.9 | 2.6 | 0.00 | 0.00 | 0.00 | 83 | 1018.0 |
| 20260905171605 | 63 | 268 | 0.9 | 2.6 | 0.00 | 0.00 | 0.00 | 83 | 1017.9 |
| 20260905171105 | 63 | 261 | 0.9 | 2.6 | 0.00 | 0.00 | 0.00 | 83 | 1018.0 |
| 20260905170604 | 63 | 234 | 1.7 | 2.6 | 0.00 | 0.00 | 0.00 | 84 | 1017.9 |
| 20260905170105 | 64 | 245 | 0.9 | 2.6 | 0.00 | 0.00 | 0.00 | 83 | 1017.9 |
| 20260905165605 | 64 | 229 | 0.9 | 2.6 | 0.00 | 0.00 | 0.00 | 82 | 1017.8 |
| 20260905165105 | 64 | 249 | 0.9 | 5.2 | 0.00 | 0.00 | 0.00 | 82 | 1017.8 |
| 20260905163604 | 64 | 248 | 0.9 | 2.6 | 0.00 | 0.00 | 0.00 | 83 | 1017.7 |
| 20260905163105 | 64 | 212 | 0.9 | 4.3 | 0.00 | 0.00 | 0.00 | 83 | 1017.7 |
| 20260905162605 | 64 | 339 | 1.7 | 2.6 | 0.00 | 0.00 | 0.00 | 83 | 1017.6 |
| 20260905162105 | 65 | 225 | 0.9 | 2.6 | 0.00 | 0.00 | 0.00 | 82 | 1017.6 |
| 20260905161606 | 65 | 219 | 1.7 | 5.2 | 0.00 | 0.00 | 0.00 | 82 | 1017.6 |
| 20260905161105 | 65 | 277 | 1.7 | 4.3 | 0.00 | 0.00 | 0.00 | 82 | 1017.6 |
| 20260905160604 | 65 | 269 | 1.7 | 4.3 | 0.00 | 0.00 | 0.00 | 82 | 1017.5 |
| 20260905160105 | 65 | 265 | 1.7 | 4.3 | 0.00 | 0.00 | 0.00 | 82 | 1017.6 |
| 20260905155605 | 65 | 256 | 1.7 | 4.3 | 0.00 | 0.00 | 0.00 | 82 | 1017.5 |
| 20260905154604 | 65 | 236 | 0.9 | 2.6 | 0.00 | 0.00 | 0.00 | 81 | 1017.4 |
| 20260905154104 | 65 | 218 | 1.7 | 2.6 | 0.00 | 0.00 | 0.00 | 81 | 1017.5 |
| 20260905153604 | 65 | 236 | 0.9 | 2.6 | 0.00 | 0.00 | 0.00 | 81 | 1017.4 |
| 20260905153104 | 65 | 224 | 0.9 | 2.6 | 0.00 | 0.00 | 0.00 | 82 | 1017.4 |
| 20260905152605 | 65 | 212 | 0.9 | 5.2 | 0.00 | 0.00 | 0.00 | 82 | 1017.3 |
| 20260905152105 | 65 | 226 | 1.7 | 2.6 | 0.00 | 0.00 | 0.00 | 83 | 1017.3 |
| 20260905151604 | 64 | 221 | 1.7 | 2.6 | 0.00 | 0.00 | 0.00 | 84 | 1017.3 |
| 20260905151105 | 64 | 166 | 4.3 | 6.1 | 0.00 | 0.00 | 0.00 | 84 | 1017.4 |
| 20260905150605 | 63 | 187 | 2.6 | 5.2 | 0.00 | 0.00 | 0.00 | 85 | 1017.3 |
| 20260905150104 | 63 | 158 | 4.3 | 7.0 | 0.00 | 0.00 | 0.00 | 85 | 1017.2 |
| 20260905145606 | 64 | 163 | 5.2 | 7.8 | 0.00 | 0.00 | 0.00 | 84 | 1017.2 |
| 20260905145104 | 65 | 148 | 3.5 | 5.2 | 0.00 | 0.00 | 0.00 | 83 | 1017.1 |
| 20260905144604 | 65 | 149 | 4.3 | 6.1 | 0.00 | 0.00 | 0.00 | 84 | 1017.1 |
| 20260905144104 | 64 | 148 | 5.2 | 7.0 | 0.00 | 0.00 | 0.00 | 84 | 1017.1 |
| 20260905143605 | 64 | 172 | 4.3 | 6.1 | 0.00 | 0.00 | 0.00 | 84 | 1017.1 |
| 20260905143105 | 65 | 159 | 5.2 | 7.0 | 0.00 | 0.00 | 0.00 | 82 | 1017.0 |
| 20260905142605 | 66 | 165 | 2.6 | 5.2 | 0.00 | 0.00 | 0.00 | 83 | 1017.0 |
| 20260905142105 | 65 | 165 | 3.5 | 6.1 | 0.00 | 0.00 | 0.00 | 83 | 1017.1 |
| 20260905141605 | 65 | 170 | 2.6 | 5.2 | 0.00 | 0.00 | 0.00 | 81 | 1017.2 |
| 20260905141104 | 66 | 168 | 1.7 | 4.3 | 0.00 | 0.00 | 0.00 | 83 | 1017.2 |
| 20260905140605 | 66 | 172 | 3.5 | 6.1 | 0.00 | 0.00 | 0.00 | 82 | 1017.2 |
| 20260905135104 | 65 | 175 | 2.6 | 7.0 | 0.00 | 0.00 | 0.00 | 81 | 1017.1 |
| 20260905134605 | 66 | 153 | 3.5 | 7.0 | 0.00 | 0.00 | 0.00 | 81 | 1017.2 |
| 20260905133605 | 67 | 154 | 1.7 | 7.0 | 0.00 | 0.00 | 0.00 | 80 | 1017.1 |
| 20260905133105 | 67 | 157 | 2.6 | 5.2 | 0.00 | 0.00 | 0.00 | 78 | 1017.2 |
| 20260905132607 | 66 | 244 | 4.3 | 7.8 | 0.00 | 0.00 | 0.00 | 82 | 1017.2 |
| 20260905132104 | 65 | 157 | 4.3 | 7.8 | 0.00 | 0.00 | 0.00 | 82 | 1017.2 |
| 20260905131604 | 66 | 157 | 4.3 | 6.1 | 0.00 | 0.00 | 0.00 | 82 | 1017.2 |
| 20260905131104 | 67 | 136 | 4.3 | 7.0 | 0.00 | 0.00 | 0.00 | 79 | 1017.2 |
| 20260905130605 | 68 | 172 | 2.6 | 5.2 | 0.00 | 0.00 | 0.00 | 79 | 1017.3 |
| 20260905130104 | 67 | 173 | 1.7 | 5.2 | 0.00 | 0.00 | 0.00 | 80 | 1017.3 |
| 20260905125604 | 67 | 186 | 0.9 | 6.1 | 0.00 | 0.00 | 0.00 | 80 | 1017.3 |
| 20260905124605 | 67 | 161 | 2.6 | 5.2 | 0.00 | 0.00 | 0.00 | 81 | 1017.2 |
| 20260905124104 | 68 | 162 | 3.5 | 5.2 | 0.00 | 0.00 | 0.00 | 79 | 1017.2 |
| 20260905123604 | 68 | 162 | 3.5 | 6.1 | 0.00 | 0.00 | 0.00 | 79 | 1017.3 |
| 20260905123105 | 68 | 157 | 0.9 | 5.2 | 0.00 | 0.00 | 0.00 | 79 | 1017.3 |
| 20260905122604 | 68 | 157 | 4.3 | 5.2 | 0.00 | 0.00 | 0.00 | 78 | 1017.4 |
| 20260905122104 | 69 | 177 | 1.7 | 2.6 | 0.00 | 0.00 | 0.00 | 76 | 1017.4 |
| 20260905121104 | 70 | 170 | 1.7 | 2.6 | 0.00 | 0.00 | 0.00 | 74 | 1017.4 |
| 20260905120604 | 70 | 168 | 0.9 | 2.6 | 0.00 | 0.00 | 0.00 | 76 | 1017.4 |
| 20260905120105 | 69 | 167 | 0.9 | 4.3 | 0.00 | 0.00 | 0.00 | 77 | 1017.4 |
| 20260905115604 | 69 | 166 | 2.6 | 4.3 | 0.00 | 0.00 | 0.00 | 76 | 1017.4 |
| 20260905115105 | 69 | 167 | 0.9 | 5.2 | 0.00 | 0.00 | 0.00 | 77 | 1017.5 |
| 20260905114604 | 69 | 163 | 0.9 | 2.6 | 0.00 | 0.00 | 0.00 | 76 | 1017.5 |
| 20260905114104 | 70 | 160 | 1.7 | 2.6 | 0.00 | 0.00 | 0.00 | 75 | 1017.4 |
| 20260905112604 | 70 | 152 | 1.7 | 4.3 | 0.00 | 0.00 | 0.00 | 76 | 1017.3 |
| 20260905112104 | 69 | 155 | 0.9 | 2.6 | 0.00 | 0.00 | 0.00 | 78 | 1017.2 |
| 20260905111104 | 68 | 150 | 0.9 | 2.6 | 0.00 | 0.00 | 0.00 | 78 | 1017.2 |
| 20260905110604 | 68 | 144 | 1.7 | 2.6 | 0.00 | 0.00 | 0.00 | 77 | 1017.2 |
| 20260905105604 | 69 | 146 | 1.7 | 2.6 | 0.00 | 0.00 | 0.00 | 77 | 1017.2 |
| 20260905105104 | 70 | 146 | 1.7 | 2.6 | 0.00 | 0.00 | 0.00 | 75 | 1017.3 |
| 20260905104605 | 70 | 146 | 0.9 | 1.7 | 0.00 | 0.00 | 0.00 | 75 | 1017.3 |
| 20260905104104 | 71 | 145 | 0.9 | 2.6 | 0.00 | 0.00 | 0.00 | 75 | 1017.2 |
| 20260905103604 | 71 | 139 | 0.9 | 2.6 | 0.00 | 0.00 | 0.00 | 74 | 1017.2 |
| 20260905102606 | 72 | 142 | 0.0 | 2.6 | 0.00 | 0.00 | 0.00 | 73 | 1017.2 |
| 20260905101605 | 72 | 141 | 0.9 | 1.7 | 0.00 | 0.00 | 0.00 | 72 | 1017.3 |
| 20260905101106 | 71 | 141 | 0.9 | 2.6 | 0.00 | 0.00 | 0.00 | 72 | 1017.2 |
| 20260905100606 | 71 | 141 | 1.7 | 4.3 | 0.00 | 0.00 | 0.00 | 74 | 1017.3 |